1 Minute Report
Date Time Wind Direction Wind Speed Wind Gust Wind Variable Altimeter Temperature Dewpoint Relative Humidity Visibility Ceiling Precip Present Weather Density Alt Wind Chill Heat Index
17/05/28 22:09 190 05 N/A N/A 29.81 76(F), 24(C) 56(F), 13(C) 50% 10 BKN100 N/A N/A 1800 N/A 78 F 7728
17/05/28 22:08 180 06 N/A N/A 29.81 76(F), 24(C) 56(F), 13(C) 50% 10 BKN100 N/A N/A 1800 N/A 78 F 7727
17/05/28 22:07 180 07 N/A N/A 29.81 76(F), 24(C) 57(F), 14(C) 53% 10 BKN100 N/A N/A 1800 N/A 78 F 7726
17/05/28 22:06 190 07 N/A N/A 29.81 76(F), 24(C) 57(F), 14(C) 53% 10 BKN100 N/A N/A 1800 N/A 78 F 7725
17/05/28 22:05 200 06 N/A N/A 29.81 76(F), 24(C) 57(F), 14(C) 53% 10 BKN100 N/A N/A 1800 N/A 78 F 7724
17/05/28 22:04 200 06 N/A N/A 29.81 76(F), 24(C) 57(F), 14(C) 53% 10 BKN100 N/A N/A 1800 N/A 78 F 7723
17/05/28 22:03 210 06 N/A N/A 29.81 76(F), 24(C) 57(F), 14(C) 53% 10 BKN100 N/A N/A 1800 N/A 78 F 7722
17/05/28 22:02 220 06 N/A N/A 29.81 76(F), 24(C) 56(F), 13(C) 50% 10 BKN100 N/A N/A 1800 N/A 78 F 7721
17/05/28 22:01 210 06 N/A N/A 29.81 76(F), 24(C) 56(F), 13(C) 50% 10 BKN100 N/A N/A 1800 N/A 78 F 7720
17/05/28 22:00 200 07 N/A N/A 29.81 76(F), 24(C) 56(F), 13(C) 50% 10 OVC100 N/A N/A 1800 N/A 78 F 7719
17/05/28 21:59 210 07 N/A N/A 29.81 76(F), 24(C) 56(F), 13(C) 50% 10 OVC100 N/A N/A 1800 N/A 78 F 7718
17/05/28 21:58 200 07 N/A N/A 29.82 76(F), 24(C) 56(F), 13(C) 50% 10 OVC100 N/A N/A 1800 N/A 78 F 7717
17/05/28 21:57 190 07 N/A N/A 29.82 76(F), 24(C) 55(F), 13(C) 50% 10 OVC100 N/A N/A 1800 N/A 78 F 7716
17/05/28 21:56 200 06 N/A N/A 29.82 76(F), 24(C) 56(F), 13(C) 50% 10 OVC100 N/A N/A 1800 N/A 78 F 7715
17/05/28 21:55 210 06 N/A N/A 29.82 76(F), 24(C) 56(F), 13(C) 50% 10 OVC100 N/A N/A 1800 N/A 78 F 7714
17/05/28 21:54 190 05 N/A N/A 29.82 76(F), 24(C) 55(F), 13(C) 50% 10 OVC100 N/A N/A 1800 N/A 78 F 7713
17/05/28 21:53 190 06 N/A N/A 29.82 76(F), 24(C) 56(F), 13(C) 50% 10 OVC100 N/A N/A 1800 N/A 78 F 7712
17/05/28 21:52 200 08 N/A N/A 29.82 76(F), 24(C) 56(F), 13(C) 50% 10 OVC100 N/A N/A 1800 N/A 78 F 7711
17/05/28 21:51 210 07 N/A N/A 29.82 76(F), 24(C) 56(F), 13(C) 50% 10 OVC100 N/A N/A 1800 N/A 78 F 7710
17/05/28 21:50 200 07 N/A N/A 29.82 77(F), 25(C) 55(F), 13(C) 47% 10 OVC100 N/A N/A 1900 N/A 78 F 7709
17/05/28 21:49 200 07 N/A N/A 29.82 76(F), 24(C) 56(F), 13(C) 50% 10 OVC100 N/A N/A 1800 N/A 78 F 7708
17/05/28 21:48 200 08 N/A N/A 29.82 76(F), 24(C) 56(F), 13(C) 50% 10 OVC100 N/A N/A 1800 N/A 78 F 7707
17/05/28 21:47 200 08 N/A N/A 29.82 76(F), 24(C) 56(F), 13(C) 50% 10 OVC100 N/A N/A 1800 N/A 78 F 7706
17/05/28 21:46 200 08 N/A N/A 29.82 76(F), 24(C) 56(F), 13(C) 50% 10 OVC100 N/A N/A 1800 N/A 78 F 7705
17/05/28 21:45 210 07 N/A N/A 29.82 76(F), 24(C) 56(F), 13(C) 50% 10 OVC100 N/A N/A 1800 N/A 78 F 7704
17/05/28 21:44 210 06 N/A N/A 29.82 77(F), 25(C) 56(F), 13(C) 47% 10 OVC100 N/A N/A 1900 N/A 78 F 7703
17/05/28 21:43 210 07 N/A N/A 29.82 77(F), 25(C) 56(F), 13(C) 47% 10 OVC100 N/A N/A 1900 N/A 78 F 7702
17/05/28 21:42 200 08 N/A N/A 29.82 77(F), 25(C) 57(F), 14(C) 50% 10 OVC100 N/A N/A 1900 N/A 78 F 7701
17/05/28 21:41 200 09 N/A N/A 29.82 77(F), 25(C) 57(F), 14(C) 50% 10 OVC100 N/A N/A 1900 N/A 78 F 7700
17/05/28 21:40 200 09 N/A N/A 29.82 77(F), 25(C) 58(F), 14(C) 50% 10 OVC100 N/A N/A 1900 N/A 78 F 7699
17/05/28 21:39 210 09 N/A 170V250 29.82 77(F), 25(C) 57(F), 14(C) 50% 10 OVC100 N/A N/A 1900 N/A 78 F 7698
17/05/28 21:38 220 07 N/A N/A 29.82 77(F), 25(C) 57(F), 14(C) 50% 10 OVC100 N/A N/A 1900 N/A 78 F 7697
17/05/28 21:37 210 05 N/A N/A 29.82 76(F), 24(C) 57(F), 14(C) 53% 10 OVC100 N/A N/A 1800 N/A 78 F 7696
17/05/28 21:36 200 04 N/A N/A 29.82 76(F), 24(C) 57(F), 14(C) 53% 10 OVC100 N/A N/A 1800 N/A 78 F 7695
17/05/28 21:35 200 05 N/A N/A 29.82 76(F), 24(C) 57(F), 14(C) 53% 10 OVC100 N/A N/A 1800 N/A 78 F 7694
17/05/28 21:34 200 05 N/A N/A 29.82 76(F), 24(C) 57(F), 14(C) 53% 10 OVC100 N/A N/A 1800 N/A 78 F 7693
17/05/28 21:33 200 04 N/A N/A 29.82 75(F), 24(C) 57(F), 14(C) 53% 10 OVC100 N/A N/A 1800 N/A 77 F 7692
17/05/28 21:32 200 05 N/A N/A 29.82 75(F), 24(C) 56(F), 13(C) 50% 10 OVC100 N/A N/A 1800 N/A 77 F 7691
17/05/28 21:31 210 06 N/A N/A 29.82 75(F), 24(C) 56(F), 13(C) 50% 10 OVC100 N/A N/A 1800 N/A 77 F 7690
17/05/28 21:30 210 06 N/A N/A 29.82 75(F), 24(C) 56(F), 13(C) 50% 10 OVC100 N/A N/A 1800 N/A 77 F 7689
17/05/28 21:29 210 06 N/A N/A 29.82 75(F), 24(C) 56(F), 13(C) 50% 10 OVC100 N/A N/A 1800 N/A 77 F 7688
17/05/28 21:28 200 05 N/A N/A 29.82 75(F), 24(C) 56(F), 13(C) 50% 10 OVC100 N/A N/A 1800 N/A 77 F 7687
17/05/28 21:27 200 05 N/A N/A 29.82 75(F), 24(C) 56(F), 13(C) 50% 10 OVC100 N/A N/A 1800 N/A 77 F 7686
17/05/28 21:26 200 06 N/A N/A 29.82 75(F), 24(C) 56(F), 13(C) 50% 10 OVC100 N/A N/A 1800 N/A 77 F 7685
17/05/28 21:25 200 07 N/A N/A 29.82 75(F), 24(C) 56(F), 13(C) 50% 10 OVC100 N/A N/A 1800 N/A 77 F 7684
17/05/28 21:24 210 07 N/A N/A 29.82 76(F), 24(C) 56(F), 13(C) 50% 10 OVC100 N/A N/A 1800 N/A 78 F 7683
17/05/28 21:23 210 08 N/A N/A 29.82 76(F), 24(C) 56(F), 13(C) 50% 10 OVC100 N/A N/A 1800 N/A 78 F 7682
17/05/28 21:22 210 09 N/A N/A 29.82 76(F), 24(C) 57(F), 14(C) 53% 10 OVC100 N/A N/A 1800 N/A 78 F 7681
17/05/28 21:21 220 09 N/A N/A 29.82 76(F), 24(C) 57(F), 14(C) 53% 10 OVC100 N/A N/A 1800 N/A 78 F 7680
17/05/28 21:20 220 07 N/A N/A 29.82 75(F), 24(C) 56(F), 13(C) 50% 10 OVC100 N/A N/A 1800 N/A 77 F 7679
17/05/28 21:19 210 05 N/A N/A 29.82 75(F), 24(C) 56(F), 13(C) 50% 10 OVC100 N/A N/A 1800 N/A 77 F 7678
17/05/28 21:18 200 06 N/A N/A 29.82 75(F), 24(C) 56(F), 13(C) 50% 10 OVC100 N/A N/A 1800 N/A 77 F 7677
17/05/28 21:17 200 07 N/A N/A 29.82 75(F), 24(C) 56(F), 13(C) 50% 10 OVC100 N/A N/A 1800 N/A 77 F 7676
17/05/28 21:16 200 08 N/A N/A 29.82 75(F), 24(C) 57(F), 14(C) 53% 10 OVC100 N/A N/A 1800 N/A 77 F 7675
17/05/28 21:15 200 08 N/A N/A 29.82 75(F), 24(C) 57(F), 14(C) 53% 10 OVC100 N/A N/A 1800 N/A 77 F 7674
17/05/28 21:14 210 08 N/A N/A 29.82 76(F), 24(C) 57(F), 14(C) 53% 10 OVC100 N/A N/A 1800 N/A 78 F 7673
17/05/28 21:13 210 07 N/A N/A 29.82 76(F), 24(C) 57(F), 14(C) 53% 10 OVC100 N/A N/A 1800 N/A 78 F 7672
17/05/28 21:12 210 06 N/A N/A 29.82 76(F), 24(C) 57(F), 14(C) 53% 10 OVC100 N/A N/A 1800 N/A 78 F 7671
17/05/28 21:11 210 05 N/A N/A 29.82 76(F), 24(C) 57(F), 14(C) 53% 10 OVC100 N/A N/A 1800 N/A 78 F 7670
17/05/28 21:10 200 04 N/A N/A 29.82 76(F), 24(C) 57(F), 14(C) 53% 10 OVC100 N/A N/A 1800 N/A 78 F 7669
17/05/28 21:09 210 06 N/A N/A 29.82 76(F), 24(C) 57(F), 14(C) 53% 10 OVC100 N/A N/A 1800 N/A 78 F 7668
17/05/28 21:08 210 07 N/A N/A 29.82 76(F), 24(C) 57(F), 14(C) 53% 10 OVC100 N/A N/A 1800 N/A 78 F 7667
17/05/28 21:07 210 07 N/A N/A 29.82 76(F), 24(C) 57(F), 14(C) 53% 10 OVC090 N/A N/A 1800 N/A 78 F 7666
17/05/28 21:06 200 05 N/A N/A 29.82 76(F), 24(C) 57(F), 14(C) 53% 10 OVC090 N/A N/A 1800 N/A 78 F 7665
17/05/28 21:05 200 06 N/A N/A 29.82 76(F), 24(C) 57(F), 14(C) 53% 10 OVC090 N/A N/A 1800 N/A 78 F 7664
17/05/28 21:04 200 07 N/A N/A 29.82 76(F), 24(C) 57(F), 14(C) 53% 10 OVC090 N/A N/A 1800 N/A 78 F 7663
17/05/28 21:03 210 08 N/A N/A 29.83 75(F), 24(C) 57(F), 14(C) 53% 10 OVC090 N/A N/A 1800 N/A 77 F 7662
17/05/28 21:02 220 09 N/A N/A 29.83 75(F), 24(C) 57(F), 14(C) 53% 10 OVC090 N/A N/A 1800 N/A 77 F 7661
17/05/28 21:01 210 08 N/A N/A 29.83 75(F), 24(C) 57(F), 14(C) 53% 10 OVC090 N/A N/A 1800 N/A 77 F 7660
17/05/28 21:00 200 05 N/A N/A 29.83 75(F), 24(C) 56(F), 13(C) 50% 10 OVC090 N/A N/A 1800 N/A 77 F 7659
17/05/28 20:59 200 05 N/A N/A 29.83 75(F), 24(C) 56(F), 13(C) 50% 10 OVC090 N/A N/A 1800 N/A 77 F 7658
17/05/28 20:58 200 06 N/A N/A 29.83 75(F), 24(C) 56(F), 13(C) 50% 10 OVC090 N/A N/A 1800 N/A 77 F 7657
17/05/28 20:57 200 07 N/A N/A 29.83 75(F), 24(C) 56(F), 13(C) 50% 10 OVC090 N/A N/A 1800 N/A 77 F 7656
17/05/28 20:56 200 07 N/A N/A 29.83 75(F), 24(C) 57(F), 14(C) 53% 10 OVC090 N/A N/A 1800 N/A 77 F 7655
17/05/28 20:55 200 07 N/A N/A 29.83 75(F), 24(C) 57(F), 14(C) 53% 10 OVC090 N/A N/A 1800 N/A 77 F 7654
17/05/28 20:54 190 07 N/A N/A 29.83 75(F), 24(C) 57(F), 14(C) 53% 10 OVC090 N/A N/A 1800 N/A 77 F 7653
17/05/28 20:53 200 07 N/A N/A 29.83 75(F), 24(C) 57(F), 14(C) 53% 10 OVC090 N/A N/A 1800 N/A 77 F 7652
17/05/28 20:52 200 07 N/A N/A 29.83 75(F), 24(C) 57(F), 14(C) 53% 10 OVC090 N/A N/A 1800 N/A 77 F 7651
17/05/28 20:51 200 06 N/A N/A 29.83 75(F), 24(C) 57(F), 14(C) 53% 10 OVC090 N/A N/A 1800 N/A 77 F 7650
17/05/28 20:50 190 05 N/A N/A 29.83 75(F), 24(C) 57(F), 14(C) 53% 10 OVC090 N/A N/A 1800 N/A 77 F 7649
17/05/28 20:49 200 05 N/A N/A 29.83 75(F), 24(C) 57(F), 14(C) 53% 10 OVC090 N/A N/A 1800 N/A 77 F 7648
17/05/28 20:48 200 05 N/A N/A 29.83 75(F), 24(C) 57(F), 14(C) 53% 10 OVC090 N/A N/A 1800 N/A 77 F 7647
17/05/28 20:47 210 06 N/A N/A 29.83 75(F), 24(C) 57(F), 14(C) 53% 10 OVC090 N/A N/A 1800 N/A 77 F 7646
17/05/28 20:46 200 07 N/A N/A 29.83 75(F), 24(C) 57(F), 14(C) 53% 10 OVC090 N/A N/A 1800 N/A 77 F 7645
17/05/28 20:45 200 07 N/A N/A 29.83 74(F), 23(C) 57(F), 14(C) 56% 10 OVC090 N/A N/A 1700 N/A 77 F 7644
17/05/28 20:44 210 06 N/A N/A 29.83 74(F), 23(C) 57(F), 14(C) 56% 10 OVC090 N/A N/A 1700 N/A 77 F 7643
17/05/28 20:43 230 07 N/A N/A 29.83 74(F), 23(C) 57(F), 14(C) 56% 10 OVC090 N/A N/A 1700 N/A 77 F 7642
17/05/28 20:42 240 07 N/A N/A 29.83 74(F), 23(C) 57(F), 14(C) 56% 10 OVC090 N/A N/A 1700 N/A 77 F 7641
17/05/28 20:41 240 08 N/A N/A 29.83 74(F), 23(C) 57(F), 14(C) 56% 10 OVC090 N/A N/A 1700 N/A 77 F 7640
17/05/28 20:40 240 07 N/A N/A 29.83 74(F), 23(C) 56(F), 13(C) 53% 10 OVC090 N/A N/A 1700 N/A 77 F 7639
17/05/28 20:39 240 06 N/A N/A 29.83 74(F), 23(C) 56(F), 13(C) 53% 10 OVC090 N/A N/A 1700 N/A 77 F 7638
17/05/28 20:38 230 05 N/A N/A 29.83 74(F), 23(C) 56(F), 13(C) 53% 10 OVC090 N/A N/A 1700 N/A 77 F 7637
17/05/28 20:37 220 05 N/A N/A 29.83 74(F), 23(C) 56(F), 13(C) 53% 10 OVC090 N/A N/A 1700 N/A 77 F 7636
17/05/28 20:36 220 07 N/A N/A 29.83 74(F), 23(C) 56(F), 13(C) 53% 10 OVC090 N/A N/A 1700 N/A 77 F 7635
17/05/28 20:35 220 07 N/A N/A 29.83 74(F), 23(C) 56(F), 13(C) 53% 10 OVC090 N/A N/A 1700 N/A 77 F 7634
17/05/28 20:34 210 07 N/A N/A 29.83 74(F), 23(C) 56(F), 13(C) 53% 10 OVC090 N/A N/A 1700 N/A 77 F 7633
17/05/28 20:33 210 06 N/A N/A 29.83 74(F), 23(C) 57(F), 14(C) 56% 10 OVC090 N/A N/A 1700 N/A 77 F 7632
17/05/28 20:32 210 07 N/A N/A 29.83 74(F), 23(C) 57(F), 14(C) 56% 10 OVC090 N/A N/A 1700 N/A 77 F 7631
17/05/28 20:31 220 08 N/A N/A 29.83 74(F), 23(C) 56(F), 13(C) 53% 10 OVC090 N/A N/A 1700 N/A 77 F 7630
17/05/28 20:30 220 08 N/A N/A 29.83 74(F), 23(C) 56(F), 13(C) 53% 10 OVC090 N/A N/A 1700 N/A 77 F 7629
17/05/28 20:29 230 07 N/A N/A 29.83 74(F), 23(C) 56(F), 13(C) 53% 10 OVC090 N/A N/A 1700 N/A 77 F 7628
17/05/28 20:28 220 07 N/A N/A 29.83 74(F), 23(C) 56(F), 13(C) 53% 10 OVC090 N/A N/A 1700 N/A 77 F 7627
17/05/28 20:27 220 06 N/A N/A 29.83 74(F), 23(C) 56(F), 13(C) 53% 10 OVC090 N/A N/A 1700 N/A 77 F 7626
17/05/28 20:26 210 07 N/A N/A 29.83 75(F), 24(C) 57(F), 14(C) 53% 10 OVC090 N/A N/A 1700 N/A 77 F 7625
17/05/28 20:25 200 07 N/A N/A 29.83 75(F), 24(C) 57(F), 14(C) 53% 10 OVC090 N/A N/A 1700 N/A 77 F 7624
17/05/28 20:24 210 07 N/A N/A 29.83 75(F), 24(C) 57(F), 14(C) 53% 10 OVC090 N/A N/A 1700 N/A 77 F 7623
17/05/28 20:23 220 07 N/A N/A 29.83 75(F), 24(C) 57(F), 14(C) 53% 10 OVC090 N/A N/A 1700 N/A 77 F 7622
17/05/28 20:22 220 07 N/A N/A 29.83 75(F), 24(C) 57(F), 14(C) 53% 10 OVC090 N/A N/A 1700 N/A 77 F 7621
17/05/28 20:21 220 06 N/A N/A 29.83 75(F), 24(C) 57(F), 14(C) 53% 10 OVC090 N/A N/A 1700 N/A 77 F 7620
17/05/28 20:20 210 05 N/A N/A 29.83 75(F), 24(C) 57(F), 14(C) 53% 10 OVC090 N/A N/A 1700 N/A 77 F 7619
17/05/28 20:19 210 06 N/A N/A 29.83 75(F), 24(C) 57(F), 14(C) 53% 10 OVC090 N/A N/A 1700 N/A 77 F 7618
17/05/28 20:18 220 07 N/A N/A 29.83 75(F), 24(C) 57(F), 14(C) 53% 10 OVC090 N/A N/A 1700 N/A 77 F 7617
17/05/28 20:17 220 07 N/A N/A 29.83 75(F), 24(C) 57(F), 14(C) 53% 10 OVC090 N/A N/A 1700 N/A 77 F 7616
17/05/28 20:16 210 06 N/A N/A 29.83 74(F), 23(C) 57(F), 14(C) 56% 10 OVC090 N/A N/A 1700 N/A 77 F 7615
17/05/28 20:15 220 06 N/A N/A 29.83 74(F), 23(C) 58(F), 14(C) 56% 10 OVC090 N/A N/A 1700 N/A 77 F 7614
17/05/28 20:14 220 07 N/A N/A 29.84 74(F), 23(C) 58(F), 14(C) 56% 10 OVC090 N/A N/A 1700 N/A 77 F 7613
17/05/28 20:13 220 07 N/A N/A 29.84 74(F), 23(C) 57(F), 14(C) 56% 10 OVC090 N/A N/A 1700 N/A 77 F 7612
17/05/28 20:12 220 06 N/A N/A 29.84 74(F), 23(C) 57(F), 14(C) 56% 10 OVC090 N/A N/A 1700 N/A 77 F 7611
17/05/28 20:11 220 06 N/A N/A 29.84 74(F), 23(C) 57(F), 14(C) 56% 10 OVC090 N/A N/A 1700 N/A 77 F 7610
17/05/28 20:10 240 08 N/A N/A 29.84 74(F), 23(C) 57(F), 14(C) 56% 10 OVC090 N/A N/A 1700 N/A 77 F 7609
17/05/28 20:09 250 08 N/A N/A 29.84 74(F), 23(C) 57(F), 14(C) 56% 10 OVC090 N/A N/A 1700 N/A 77 F 7608